period_start,C,m1,H,J0,J1,J2,J3,J4,J5,JA,JB,JC,JD,JJ,JK,JN,#
2015-09-04 00:02:49,0.00,0.05,0.00,22.95,28.03,30.79,14.68,46.82,1023.57,2036.01,3465.06,3251.02,3532.30,600.06,600.22,9.40,0000 0000 0000 0000 000000
2015-09-04 00:07:50,0.00,0.05,0.00,22.84,28.04,30.85,14.63,47.08,1023.52,2036.00,3465.00,3251.00,3532.04,600.11,600.58,9.45,0000 0000 0000 0000 000000
2015-09-04 00:12:51,0.00,0.05,0.00,22.72,28.03,30.83,14.65,46.95,1023.50,2036.00,3465.00,3251.00,3532.01,600.14,600.69,9.50,0000 0000 0000 0000 000000
2015-09-04 00:17:53,0.00,0.05,0.00,22.88,28.03,30.75,14.58,46.90,1023.51,2036.00,3465.00,3251.00,3532.00,599.86,600.21,9.55,0000 0000 0000 0000 000000
2015-09-04 00:22:54,0.00,0.05,0.00,22.97,28.04,30.81,14.65,46.92,1023.50,2036.00,3464.99,3251.00,3532.00,600.16,600.24,9.60,0000 0000 0000 0000 000000
2015-09-04 00:27:55,0.00,0.05,0.00,22.79,28.04,30.82,14.69,46.86,1023.52,2036.00,3464.80,3251.00,3532.00,600.09,600.71,9.65,0000 0000 0000 0000 000000
2015-09-04 00:32:56,0.00,0.05,0.00,22.68,28.03,30.82,14.72,46.79,1023.63,2036.00,3464.52,3250.99,3531.98,599.97,600.77,9.70,0000 0000 0000 0000 000000
2015-09-04 00:37:57,0.01,0.05,0.00,22.81,28.03,30.78,14.69,46.68,1023.78,2036.00,3464.07,3250.98,3531.82,600.19,600.82,9.75,0000 0000 0000 0000 000000
2015-09-04 00:42:58,0.00,0.05,0.00,22.96,28.04,30.82,14.59,46.82,1023.83,2036.00,3464.01,3250.97,3531.36,599.55,599.89,9.80,0000 0000 0000 0000 000000
2015-09-04 00:48:00,0.00,0.05,0.00,22.83,28.04,30.80,14.71,46.81,1023.88,2036.00,3464.00,3250.96,3531.26,600.40,601.07,9.85,0000 0000 0000 0000 000000
2015-09-04 00:53:01,0.00,0.05,0.00,22.77,28.04,30.77,14.66,46.83,1023.85,2036.00,3464.00,3250.95,3531.08,600.02,600.78,9.90,0000 0000 0000 0000 000000
2015-09-04 00:58:02,0.00,0.05,0.00,22.95,28.05,30.76,14.64,46.65,1023.82,2036.00,3464.00,3250.96,3531.07,600.04,600.40,9.95,0000 0000 0000 0000 000000
2015-09-04 01:03:03,0.00,0.05,0.00,22.94,28.05,30.76,14.66,46.67,1023.76,2036.01,3463.98,3250.94,3531.02,600.07,600.29,10.00,0000 0000 0000 0000 000000
2015-09-04 01:08:05,0.00,0.05,0.00,23.00,28.05,30.74,14.61,46.50,1023.59,2036.00,3463.96,3250.83,3531.00,600.06,600.36,10.05,0000 0000 0000 0000 000000
2015-09-04 01:13:07,0.00,0.06,0.00,23.06,28.05,30.73,14.60,46.98,1023.61,2036.00,3463.89,3250.75,3531.00,599.25,599.26,10.10,0000 0000 0000 0000 000000
2015-09-04 01:18:08,0.01,0.06,0.00,23.05,28.05,30.73,14.63,46.81,1023.48,2036.01,3463.52,3250.55,3530.99,600.28,600.20,10.15,0000 0000 0000 0000 000000
2015-09-04 01:23:09,0.00,0.06,0.00,23.11,28.05,30.74,14.67,46.72,1023.47,2036.01,3463.30,3250.53,3530.99,600.52,600.25,10.20,0000 0000 0000 0000 000000
2015-09-04 01:28:10,0.01,0.06,0.00,23.04,28.05,30.73,14.55,46.42,1023.46,2036.01,3463.12,3250.43,3530.98,599.42,599.63,10.25,0000 0000 0000 0000 000000
2015-09-04 01:33:12,0.01,0.06,0.00,23.13,28.05,30.73,14.56,46.58,1023.46,2036.01,3463.01,3250.13,3530.90,599.76,599.57,10.30,0000 0000 0000 0000 000000
2015-09-04 01:38:13,0.00,0.06,0.00,23.03,28.05,30.73,14.62,46.59,1023.46,2036.02,3463.00,3250.03,3530.58,600.34,600.12,10.35,0000 0000 0000 0000 000000
2015-09-04 01:43:14,-0.00,0.06,0.00,23.07,28.05,30.72,14.59,46.63,1023.45,2036.01,3462.99,3250.02,3530.36,599.66,599.53,10.40,0000 0000 0000 0000 000000
2015-09-04 01:48:15,0.00,0.06,0.00,23.05,28.05,30.73,14.51,46.49,1023.46,2036.01,3462.96,3250.01,3530.09,599.99,599.98,10.45,0000 0000 0000 0000 000000
2015-09-04 01:53:17,0.00,0.06,0.00,23.07,28.05,30.71,14.65,46.50,1023.45,2036.00,3462.83,3250.00,3530.02,600.20,600.11,10.50,0000 0000 0000 0000 000000
2015-09-04 01:58:18,0.00,0.06,0.00,23.10,28.05,30.73,14.56,46.66,1023.45,2036.00,3462.43,3250.00,3530.00,599.71,599.60,10.55,0000 0000 0000 0000 000000
2015-09-04 02:03:19,0.00,0.06,0.00,22.91,28.05,30.77,14.64,46.83,1023.45,2036.01,3462.09,3250.00,3530.00,600.04,600.17,10.60,0000 0000 0000 0000 000000
2015-09-04 02:08:21,0.00,0.06,0.00,22.87,28.05,30.74,14.60,46.63,1023.46,2036.01,3462.00,3250.00,3530.00,599.95,600.27,10.65,0000 0000 0000 0000 000000
2015-09-04 02:13:22,0.00,0.06,0.00,23.05,28.05,30.75,14.60,46.51,1023.46,2036.01,3462.01,3250.00,3530.00,600.52,600.45,10.70,0000 0000 0000 0000 000000
2015-09-04 02:18:23,-0.00,0.06,0.00,23.06,28.05,30.76,14.51,46.35,1023.45,2036.01,3462.00,3249.98,3529.98,599.61,599.54,10.75,0000 0000 0000 0000 000000
2015-09-04 02:23:24,0.00,0.06,0.00,23.00,28.05,30.74,14.54,46.42,1023.45,2036.02,3461.92,3249.95,3529.87,600.02,600.20,10.80,0000 0000 0000 0000 000000
2015-09-04 02:28:26,0.00,0.06,0.00,23.13,28.05,30.74,14.63,46.69,1023.45,2036.00,3461.84,3249.96,3529.68,600.33,600.11,10.85,0000 0000 0000 0000 000000
2015-09-04 02:33:27,0.02,0.06,0.00,23.03,28.06,30.77,14.61,46.74,1023.45,2036.01,3461.20,3249.82,3529.28,599.81,599.79,10.90,0000 0000 0000 0000 000000
2015-09-04 02:38:28,0.01,0.06,0.00,23.01,28.06,30.72,14.58,46.64,1023.45,2036.01,3461.03,3249.44,3529.06,599.92,599.91,10.95,0000 0000 0000 0000 000000
2015-09-04 02:43:30,0.01,0.06,0.00,23.13,28.07,30.74,14.61,46.48,1023.45,2036.01,3461.01,3249.15,3529.00,599.93,599.60,11.00,0000 0000 0000 0000 000000
2015-09-04 02:48:31,0.00,0.06,0.00,22.99,28.07,30.76,14.66,46.61,1023.45,2036.00,3460.99,3249.04,3529.00,599.95,600.01,11.05,0000 0000 0000 0000 000000
2015-09-04 02:53:32,0.00,0.06,0.00,23.08,28.07,30.73,14.63,46.45,1023.45,2036.01,3460.98,3249.02,3529.00,600.10,599.98,11.10,0000 0000 0000 0000 000000
2015-09-04 02:58:34,0.00,0.06,0.00,23.16,28.07,30.74,14.63,46.48,1023.45,2036.01,3460.97,3249.02,3528.98,599.93,599.84,11.15,0000 0000 0000 0000 000000
2015-09-04 03:03:35,0.00,0.06,0.00,23.08,28.07,30.75,14.67,46.58,1023.47,2036.00,3460.79,3249.00,3528.96,599.83,599.85,11.20,0000 0000 0000 0000 000000
2015-09-04 03:08:36,0.00,0.06,0.00,23.20,28.07,30.74,14.56,46.52,1023.45,2036.00,3460.49,3249.00,3528.93,599.83,599.47,11.25,0000 0000 0000 0000 000000
2015-09-04 03:13:37,0.00,0.06,0.00,23.18,28.09,30.74,14.61,46.45,1023.45,2036.00,3460.20,3249.00,3528.74,600.17,600.09,11.30,0000 0000 0000 0000 000000
2015-09-04 03:18:39,0.01,0.06,0.00,23.27,28.10,30.75,14.57,46.03,1023.45,2036.00,3460.03,3249.00,3528.20,599.89,599.48,11.35,0000 0000 0000 0000 000000
2015-09-04 03:23:40,0.00,0.06,0.00,23.18,28.10,30.76,14.62,46.50,1023.45,2036.00,3460.00,3249.00,3528.06,600.09,599.75,11.40,0000 0000 0000 0000 000000
2015-09-04 03:28:41,0.00,0.06,0.00,23.16,28.10,30.75,14.64,46.43,1023.45,2036.00,3460.00,3248.99,3528.03,600.31,600.02,11.45,0000 0000 0000 0000 000000
2015-09-04 03:33:42,0.00,0.06,0.00,23.23,28.10,30.77,14.61,46.51,1023.45,2036.00,3460.00,3248.98,3528.01,599.86,599.57,11.50,0000 0000 0000 0000 000000
2015-09-04 03:38:43,0.00,0.06,0.00,23.11,28.10,30.79,14.68,46.66,1023.45,2036.00,3459.96,3248.97,3528.00,600.40,600.07,11.55,0000 0000 0000 0000 000000
2015-09-04 03:43:45,0.00,0.06,0.00,23.13,28.10,30.74,14.70,46.34,1023.45,2036.00,3459.86,3248.96,3528.00,599.84,599.67,11.60,0000 0000 0000 0000 000000
2015-09-04 03:48:46,0.00,0.06,0.00,23.25,28.10,30.77,14.63,46.33,1023.45,2036.00,3459.66,3248.91,3527.99,600.17,599.77,11.65,0000 0000 0000 0000 000000
2015-09-04 03:53:47,0.01,0.06,0.00,23.16,28.10,30.79,14.62,46.11,1023.45,2036.00,3459.18,3248.62,3527.98,599.91,599.63,11.70,0000 0000 0000 0000 000000
2015-09-04 03:58:48,0.01,0.06,0.00,23.09,28.10,30.78,14.52,46.20,1023.45,2036.00,3459.01,3248.28,3527.83,599.46,599.41,11.75,0000 0000 0000 0000 000000
2015-09-04 04:03:49,0.01,0.07,0.00,23.23,28.10,30.78,14.48,46.06,1023.45,2036.00,3459.00,3248.04,3527.25,599.88,599.44,11.80,0000 0000 0000 0000 000000
2015-09-04 04:08:50,0.00,0.07,0.00,23.20,28.12,30.80,14.67,46.14,1023.45,2036.00,3458.98,3248.01,3527.08,599.92,599.29,11.86,0000 0000 0000 0000 000000
2015-09-04 04:13:52,-0.00,0.07,0.00,23.15,28.12,30.78,14.62,46.13,1023.44,2036.00,3458.99,3248.06,3527.18,600.33,600.08,11.91,0000 0000 0000 0000 000000
2015-09-04 04:18:53,0.00,0.07,0.00,23.26,28.12,30.79,14.58,46.35,1023.44,2036.00,3458.79,3248.00,3527.02,599.98,599.40,11.96,0000 0000 0000 0000 000000
2015-09-04 04:23:54,-0.00,0.07,0.00,23.22,28.12,30.80,14.63,46.16,1023.45,2036.00,3458.79,3248.01,3527.03,599.73,599.38,12.01,0000 0000 0000 0000 000000
2015-09-04 04:28:56,0.01,0.07,0.00,23.31,28.12,30.79,14.57,46.33,1023.41,2036.00,3458.41,3248.00,3527.00,599.82,599.21,12.06,0000 0000 0000 0000 000000
2015-09-04 04:33:57,0.00,0.07,0.00,23.33,28.14,30.78,14.51,45.98,1023.42,2036.00,3458.11,3248.00,3527.00,599.76,599.08,12.11,0000 0000 0000 0000 000000
2015-09-04 04:38:58,0.00,0.07,0.00,23.38,28.15,30.78,14.62,46.08,1023.40,2036.00,3458.01,3248.00,3526.99,600.25,599.49,12.16,0000 0000 0000 0000 000000
2015-09-04 04:43:59,0.00,0.07,0.00,23.44,28.15,30.80,14.50,45.83,1023.31,2036.00,3458.00,3247.99,3526.97,599.60,598.74,12.21,0000 0000 0000 0000 000000
2015-09-04 04:49:01,0.00,0.07,0.00,23.43,28.15,30.78,14.66,46.59,1023.25,2036.00,3457.99,3247.98,3526.93,600.28,599.33,12.26,0000 0000 0000 0000 000000
2015-09-04 04:54:02,0.00,0.07,0.00,23.35,28.15,30.77,14.54,46.83,1023.16,2036.00,3457.97,3247.98,3526.68,600.15,599.28,12.31,0000 0000 0000 0000 000000
2015-09-04 04:59:04,0.00,0.07,0.00,23.43,28.15,30.76,14.52,46.42,1023.09,2036.00,3457.94,3247.98,3526.73,599.84,598.81,12.36,0000 0000 0000 0000 000000
2015-09-04 05:04:05,0.01,0.07,0.00,23.32,28.15,30.78,14.54,46.33,1023.02,2036.00,3457.69,3247.96,3526.25,599.62,598.63,12.41,0000 0000 0000 0000 000000
2015-09-04 05:09:06,0.01,0.07,0.00,23.27,28.15,30.77,14.62,46.44,1022.97,2036.00,3457.20,3247.88,3526.03,600.30,599.53,12.46,0000 0000 0000 0000 000000
2015-09-04 05:14:07,0.00,0.07,0.00,23.36,28.15,30.79,14.60,46.13,1022.96,2036.00,3457.04,3247.85,3526.01,599.89,598.90,12.51,0000 0000 0000 0000 000000
2015-09-04 05:19:09,-0.00,0.07,0.00,23.33,28.15,30.80,14.59,46.47,1022.96,2036.00,3457.07,3247.93,3526.01,600.24,599.22,12.56,0000 0000 0000 0000 000000
2015-09-04 05:24:10,0.00,0.07,0.00,23.25,28.15,30.77,14.66,46.62,1022.97,2036.00,3457.01,3247.87,3526.01,600.17,599.43,12.61,0000 0000 0000 0000 000000
2015-09-04 05:29:11,0.00,0.07,0.00,23.36,28.15,30.79,14.61,46.43,1022.96,2036.00,3457.00,3247.60,3526.00,600.44,599.47,12.66,0000 0000 0000 0000 000000
2015-09-04 05:34:12,0.01,0.07,0.00,23.34,28.15,30.80,14.58,46.10,1022.96,2036.00,3456.94,3247.10,3525.94,599.99,599.06,12.71,0000 0000 0000 0000 000000
2015-09-04 05:39:13,0.00,0.07,0.00,23.28,28.15,30.78,14.48,46.17,1022.97,2035.99,3456.84,3247.01,3525.70,599.42,598.65,12.76,0000 0000 0000 0000 000000
2015-09-04 05:44:14,0.00,0.07,0.00,23.38,28.15,30.81,14.57,46.31,1022.97,2035.99,3456.52,3247.01,3525.43,599.75,598.89,12.81,0000 0000 0000 0000 000000
2015-09-04 05:49:16,0.01,0.07,0.00,23.35,28.15,30.84,14.49,46.21,1022.96,2035.99,3456.24,3247.00,3525.26,599.49,598.54,12.86,0000 0000 0000 0000 000000
2015-09-04 05:54:17,0.00,0.07,0.00,23.33,28.16,30.81,14.49,46.13,1022.97,2035.99,3456.07,3247.00,3525.09,599.46,598.59,12.91,0000 0000 0000 0000 000000
2015-09-04 05:59:18,0.00,0.07,0.00,23.41,28.17,30.81,14.55,46.21,1022.96,2035.99,3456.03,3247.00,3525.06,600.12,599.09,12.96,0000 0000 0000 0000 000000
2015-09-04 06:04:20,0.00,0.07,0.00,23.42,28.17,30.81,14.55,46.18,1022.96,2035.99,3456.00,3247.00,3525.00,599.60,598.58,13.01,0000 0000 0000 0000 000000
2015-09-04 06:09:21,0.00,0.07,0.00,23.53,28.17,30.81,14.54,46.06,1022.96,2035.99,3456.00,3246.99,3525.00,599.76,598.42,13.06,0000 0000 0000 0000 000000
2015-09-04 06:14:22,0.00,0.07,0.00,23.49,28.17,30.82,14.55,45.86,1022.96,2035.98,3456.00,3246.98,3524.99,600.05,598.87,13.11,0000 0000 0000 0000 000000
2015-09-04 06:19:23,0.00,0.07,0.00,23.49,28.18,30.81,14.62,46.07,1022.96,2035.98,3455.99,3246.94,3524.98,600.15,598.95,13.16,0000 0000 0000 0000 000000
2015-09-04 06:24:25,-0.00,0.07,0.00,23.56,28.19,30.82,14.54,45.83,1022.95,2035.97,3455.96,3246.91,3524.97,599.90,598.48,13.21,0000 0000 0000 0000 000000
2015-09-04 06:29:26,0.02,0.07,0.00,23.53,28.20,30.83,14.56,45.99,1022.84,2035.98,3455.49,3246.62,3524.93,600.11,598.74,13.26,0000 0000 0000 0000 000000
2015-09-04 06:34:27,-0.00,0.07,0.00,23.57,28.20,30.83,14.56,46.13,1022.93,2035.98,3455.38,3246.73,3524.89,600.06,598.68,13.31,0000 0000 0000 0000 000000
2015-09-04 06:39:28,0.01,0.07,0.00,23.53,28.20,30.84,14.54,46.63,1022.92,2035.98,3455.05,3246.60,3524.78,600.01,598.68,13.36,0000 0000 0000 0000 000000
2015-09-04 06:44:30,0.01,0.07,0.00,23.47,28.20,30.82,14.60,46.43,1022.87,2035.99,3455.01,3246.30,3524.50,600.21,598.87,13.41,0000 0000 0000 0000 000000
2015-09-04 06:49:31,0.00,0.07,0.00,23.53,28.20,30.84,14.54,46.14,1022.81,2035.99,3455.01,3246.23,3524.36,599.99,598.50,13.46,0000 0000 0000 0000 000000
2015-09-04 06:54:32,0.00,0.07,0.00,23.48,28.20,30.86,14.63,46.18,1022.52,2035.99,3455.00,3246.14,3524.16,599.99,598.56,13.51,0000 0000 0000 0000 000000
2015-09-04 06:59:33,0.00,0.07,0.00,23.48,28.20,30.81,14.54,45.82,1022.66,2035.99,3455.00,3246.05,3524.05,600.04,598.66,13.56,0000 0000 0000 0000 000000
2015-09-04 07:04:35,0.00,0.07,0.00,23.53,28.20,30.86,14.49,45.90,1022.68,2035.99,3454.94,3246.02,3524.00,599.62,598.22,13.61,0000 0000 0000 0000 000000
2015-09-04 07:09:36,0.00,0.07,0.00,23.51,28.20,30.85,14.55,45.88,1022.63,2035.98,3454.66,3246.00,3524.00,599.92,598.46,13.66,0000 0000 0000 0000 000000
2015-09-04 07:14:37,0.00,0.07,0.00,23.55,28.21,30.87,14.56,45.89,1022.58,2035.99,3454.18,3246.00,3524.00,600.12,598.49,13.71,0000 0000 0000 0000 000000
2015-09-04 07:19:38,-0.00,0.07,0.00,23.55,28.22,30.85,14.48,45.78,1022.65,2035.98,3454.06,3246.00,3523.98,600.09,598.63,13.76,0000 0000 0000 0000 000000
2015-09-04 07:24:40,0.00,0.07,0.00,23.53,28.22,30.84,14.50,45.87,1022.76,2035.98,3454.00,3245.99,3523.97,599.62,598.17,13.81,0000 0000 0000 0000 000000
2015-09-04 07:29:41,0.00,0.07,0.00,23.57,28.22,30.84,14.52,45.92,1022.57,2035.98,3453.99,3245.97,3523.72,599.82,598.29,13.86,0000 0000 0000 0000 000000
2015-09-04 07:34:42,0.01,0.07,0.00,23.59,28.22,30.87,14.58,45.88,1022.49,2035.97,3453.96,3245.96,3523.28,600.32,598.59,13.91,0000 0000 0000 0000 000000
2015-09-04 07:39:43,0.00,0.07,0.00,23.56,28.22,30.89,14.53,45.76,1022.49,2035.96,3453.89,3245.92,3523.13,599.95,598.17,13.96,0000 0000 0000 0000 000000
2015-09-04 07:44:44,0.01,0.07,0.00,23.54,28.22,30.85,14.53,45.85,1022.53,2035.95,3453.50,3245.86,3523.03,599.84,598.12,14.01,0000 0000 0000 0000 000000
2015-09-04 07:49:45,0.00,0.08,0.00,23.59,28.22,30.87,14.54,45.80,1022.48,2035.97,3453.24,3245.82,3523.01,600.14,598.41,14.06,0000 0000 0000 0000 000000
2015-09-04 07:54:47,0.01,0.08,0.00,23.62,28.22,30.87,14.62,45.86,1022.48,2035.98,3453.02,3245.35,3523.00,600.06,598.28,14.11,0000 0000 0000 0000 000000
2015-09-04 07:59:48,-0.00,0.08,0.00,23.67,28.23,30.88,14.53,45.65,1022.48,2035.96,3453.00,3245.26,3523.00,599.76,597.91,14.16,0000 0000 0000 0000 000000
2015-09-04 08:04:49,0.00,0.08,0.00,23.63,28.24,30.88,14.57,45.65,1022.48,2035.95,3453.00,3245.07,3522.99,599.93,598.17,14.22,0000 0000 0000 0000 000000
2015-09-04 08:09:51,0.00,0.08,0.00,23.65,28.25,30.86,14.60,45.71,1022.48,2035.96,3452.97,3245.03,3522.98,599.86,598.06,14.27,0000 0000 0000 0000 000000
2015-09-04 08:14:52,0.00,0.08,0.00,23.65,28.25,30.87,14.54,45.76,1022.48,2035.97,3452.91,3245.02,3522.93,599.99,598.21,14.32,0000 0000 0000 0000 000000
2015-09-04 08:19:53,0.01,0.08,0.00,23.64,28.25,30.85,14.50,45.88,1022.50,2035.94,3452.48,3245.01,3522.54,600.45,598.58,14.37,0000 0000 0000 0000 000000
2015-09-04 08:24:55,0.01,0.08,0.00,23.66,28.25,30.89,14.52,46.52,1022.48,2035.93,3452.07,3245.00,3522.22,599.80,597.72,14.42,0000 0000 0000 0000 000000
2015-09-04 08:29:56,-0.00,0.08,0.00,23.63,28.25,30.87,14.63,46.35,1022.49,2035.94,3452.01,3245.00,3522.06,600.21,598.52,14.47,0000 0000 0000 0000 000000
2015-09-04 08:34:57,0.00,0.08,0.00,23.66,28.25,30.86,14.54,45.92,1022.49,2035.94,3452.00,3245.00,3522.03,599.86,597.98,14.52,0000 0000 0000 0000 000000
2015-09-04 08:39:58,0.00,0.08,0.00,23.67,28.25,30.89,14.59,45.73,1022.56,2035.96,3452.00,3245.00,3522.01,600.12,598.22,14.57,0000 0000 0000 0000 000000
2015-09-04 08:45:00,0.00,0.08,0.00,23.69,28.25,30.90,14.60,45.67,1022.93,2035.97,3452.00,3245.00,3522.00,599.95,598.31,14.62,0000 0000 0000 0000 000000
2015-09-04 08:50:02,-0.00,0.08,0.00,23.70,28.25,30.91,14.44,45.68,1022.95,2035.96,3451.99,3244.99,3522.00,599.42,597.76,14.67,0000 0000 0000 0000 000000
2015-09-04 08:55:03,-0.00,0.08,0.00,23.67,28.25,30.86,14.53,45.66,1022.80,2035.92,3451.88,3244.96,3521.99,600.09,598.41,14.72,0000 0000 0000 0000 000000
2015-09-04 09:00:04,0.01,0.08,0.00,23.70,28.25,30.86,14.53,45.61,1022.91,2035.90,3451.40,3244.89,3521.98,600.26,598.54,14.77,0000 0000 0000 0000 000000
2015-09-04 09:05:05,0.01,0.08,0.00,23.70,28.25,30.90,14.51,45.63,1022.96,2035.89,3451.04,3244.66,3521.84,600.06,598.32,14.82,0000 0000 0000 0000 000000
2015-09-04 09:10:06,0.01,0.08,0.00,23.68,28.25,30.88,14.58,45.63,1022.96,2035.85,3451.01,3244.40,3521.63,600.13,598.52,14.87,0000 0000 0000 0000 000000
2015-09-04 09:15:08,0.01,0.08,0.00,23.69,28.25,30.88,14.47,45.65,1022.96,2035.85,3451.00,3244.09,3521.22,599.83,598.12,14.92,0000 0000 0000 0000 000000
2015-09-04 09:20:09,0.00,0.08,0.00,23.69,28.25,30.86,14.51,45.49,1022.96,2035.88,3451.00,3244.12,3521.17,599.76,598.13,14.97,0000 0000 0000 0000 000000
2015-09-04 09:25:10,0.00,0.08,0.00,23.73,28.25,30.88,14.56,45.60,1022.96,2035.89,3450.98,3244.06,3521.07,600.14,598.53,15.02,0000 0000 0000 0000 000000
2015-09-04 09:30:11,-0.00,0.08,0.00,23.73,28.25,30.92,14.49,45.52,1022.97,2035.91,3450.93,3244.04,3521.02,599.66,597.95,15.07,0000 0000 0000 0000 000000
2015-09-04 09:35:12,0.01,0.08,0.00,23.68,28.25,30.87,14.55,45.48,1022.97,2035.92,3450.78,3244.02,3521.03,600.12,598.60,15.12,0000 0000 0000 0000 000000
2015-09-04 09:40:14,0.00,0.08,0.00,23.71,28.25,30.90,14.51,45.59,1022.97,2035.92,3450.29,3244.02,3521.00,599.95,598.15,15.17,0000 0000 0000 0000 000000
2015-09-04 09:45:15,-0.00,0.08,0.00,23.73,28.25,30.91,14.52,45.53,1022.96,2035.83,3450.03,3244.00,3521.00,600.12,598.40,15.22,0000 0000 0000 0000 000000
2015-09-04 09:50:17,0.01,0.08,0.00,23.73,28.25,30.94,14.51,45.48,1022.96,2035.86,3450.00,3244.00,3520.99,599.93,598.22,15.27,0000 0000 0000 0000 000000
2015-09-04 09:55:18,0.02,0.08,0.00,23.66,28.25,30.90,14.50,45.56,1022.96,2035.80,3449.78,3243.88,3520.67,600.01,598.40,15.32,0000 0000 0000 0000 000000
2015-09-04 10:00:19,0.04,0.08,0.00,23.69,28.25,30.86,14.48,45.50,1022.96,2035.82,3448.58,3243.09,3519.94,600.16,598.68,15.37,0000 0000 0000 0000 000000
2015-09-04 10:05:21,0.04,0.09,0.00,23.69,28.25,30.91,14.53,45.51,1022.96,2035.85,3447.42,3242.48,3519.13,599.69,598.05,15.42,0000 0000 0000 0000 000000
2015-09-04 10:10:22,0.01,0.09,0.00,23.68,28.25,30.87,14.55,45.42,1022.95,2035.85,3446.96,3242.12,3519.00,600.15,598.59,15.47,0000 0000 0000 0000 000000
2015-09-04 10:15:23,0.04,0.09,0.00,23.72,28.25,30.88,14.57,45.44,1022.88,2035.71,3445.59,3241.55,3518.25,600.19,598.54,15.52,0000 0000 0000 0000 000000
2015-09-04 10:20:24,0.05,0.09,0.00,23.72,28.25,30.89,14.51,45.33,1022.93,2035.69,3444.10,3240.92,3517.45,600.12,598.30,15.57,0000 0000 0000 0000 000000
2015-09-04 10:25:26,-0.01,0.09,0.00,23.76,28.25,30.89,14.45,45.43,1022.96,2035.38,3443.00,3240.08,3516.95,599.74,597.98,15.62,0000 0000 0000 0000 000000
2015-09-04 10:30:27,0.03,0.09,0.00,23.74,28.25,30.91,14.51,45.41,1022.96,2035.29,3442.22,3240.00,3516.38,599.79,598.06,15.67,0000 0000 0000 0000 000000
2015-09-04 10:35:29,0.01,0.09,0.00,23.70,28.25,30.88,14.59,45.43,1022.95,2035.35,3441.97,3239.94,3516.03,600.43,598.77,15.72,0000 0000 0000 0000 000000
2015-09-04 10:40:30,0.02,0.09,0.00,23.72,28.25,30.90,14.57,45.49,1022.90,2035.26,3441.25,3239.40,3515.99,599.95,598.18,15.77,0000 0000 0000 0000 000000
2015-09-04 10:45:31,0.03,0.10,0.00,23.71,28.26,30.90,14.49,45.43,1022.90,2035.26,3440.61,3239.01,3515.49,599.69,598.06,15.82,0000 0000 0000 0000 000000
2015-09-04 10:50:33,0.02,0.10,0.00,23.69,28.26,30.87,14.61,45.52,1022.95,2035.17,3439.67,3238.61,3514.96,600.08,598.43,15.87,0000 0000 0000 0000 000000
2015-09-04 10:55:34,0.03,0.10,0.00,23.70,28.26,30.93,14.59,45.41,1022.92,2035.17,3438.78,3238.02,3514.24,600.16,598.48,15.92,0000 0000 0000 0000 000000
2015-09-04 11:00:35,0.04,0.10,0.00,23.71,28.27,30.89,14.54,45.38,1022.80,2035.28,3437.65,3237.66,3513.82,599.80,598.07,15.97,0000 0000 0000 0000 000000
2015-09-04 11:05:36,0.03,0.10,0.00,23.73,28.27,30.93,14.51,45.45,1022.85,2035.22,3436.36,3237.01,3513.03,599.94,598.16,16.02,0000 0000 0000 0000 000000
2015-09-04 11:10:37,0.00,0.10,0.00,23.70,28.27,30.90,14.53,45.43,1022.77,2035.22,3435.99,3236.94,3512.90,599.85,598.08,16.07,0000 0000 0000 0000 000000
2015-09-04 11:15:38,-0.00,0.10,0.00,23.69,28.27,30.88,14.53,45.41,1022.66,2035.07,3435.96,3236.92,3512.59,600.15,598.45,16.12,0000 0000 0000 0000 000000
2015-09-04 11:20:40,0.01,0.10,0.00,23.68,28.27,30.93,14.52,45.38,1022.67,2035.01,3435.93,3236.76,3512.14,599.73,597.87,16.17,0000 0000 0000 0000 000000
2015-09-04 11:25:41,0.01,0.10,0.00,23.63,28.26,30.89,14.49,45.31,1022.59,2035.01,3435.54,3236.45,3512.05,599.89,598.10,16.22,0000 0000 0000 0000 000000
2015-09-04 11:30:43,0.01,0.11,0.00,23.67,28.26,30.90,14.64,45.36,1022.58,2035.01,3435.06,3236.18,3512.03,600.18,598.45,16.27,0000 0000 0000 0000 000000
2015-09-04 11:35:44,0.00,0.11,0.00,23.68,28.25,30.95,14.49,45.39,1022.52,2035.01,3435.02,3236.12,3512.00,599.83,597.73,16.32,0000 0000 0000 0000 000000
2015-09-04 11:40:46,0.00,0.11,0.00,23.72,28.25,30.96,14.54,45.33,1022.53,2035.00,3435.00,3236.01,3512.00,600.20,598.21,16.37,0000 0000 0000 0000 000000
2015-09-04 11:45:47,0.00,0.11,0.00,23.72,28.25,30.95,14.55,45.38,1022.54,2035.00,3435.00,3236.01,3511.99,600.31,598.30,16.42,0000 0000 0000 0000 000000
2015-09-04 11:50:48,0.00,0.11,0.00,23.74,28.25,30.92,14.51,45.42,1022.53,2035.00,3434.95,3236.00,3511.98,599.87,597.90,16.47,0000 0000 0000 0000 000000
2015-09-04 11:55:50,0.00,0.11,0.00,23.75,28.25,30.91,14.53,45.53,1022.50,2035.02,3434.54,3236.01,3511.99,599.94,598.10,16.52,0000 0000 0000 0000 000000
2015-09-04 12:00:51,0.00,0.11,0.00,23.76,28.24,30.88,14.51,45.40,1022.51,2035.01,3434.04,3236.00,3511.98,600.07,598.02,16.57,0000 0000 0000 0000 000000
2015-09-04 12:05:52,0.00,0.11,0.00,23.72,28.22,30.91,14.59,45.52,1022.52,2035.03,3434.01,3235.99,3511.98,599.80,597.82,16.62,0000 0000 0000 0000 000000
2015-09-04 12:10:54,0.01,0.11,0.00,23.63,28.22,30.87,14.58,45.55,1022.49,2035.06,3434.00,3235.99,3511.94,599.76,597.95,16.68,0000 0000 0000 0000 000000
2015-09-04 12:15:55,-0.00,0.11,0.00,23.63,28.22,30.86,14.52,45.55,1022.49,2035.06,3434.00,3235.99,3511.94,599.80,597.99,16.73,0000 0000 0000 0000 000000
2015-09-04 12:20:56,0.01,0.11,0.00,23.62,28.22,30.88,14.54,45.69,1022.49,2035.08,3433.99,3235.99,3511.87,599.93,598.15,16.78,0000 0000 0000 0000 000000
2015-09-04 12:25:57,-0.00,0.11,0.00,23.64,28.22,30.84,14.62,45.58,1022.48,2035.08,3433.98,3235.99,3511.74,600.59,598.75,16.83,0000 0000 0000 0000 000000
2015-09-04 12:30:58,0.00,0.11,0.00,23.65,28.21,30.90,14.48,45.52,1022.48,2035.15,3433.94,3235.99,3511.77,599.92,598.12,16.88,0000 0000 0000 0000 000000
2015-09-04 12:36:00,0.02,0.11,0.00,23.62,28.20,30.90,14.55,45.62,1022.49,2035.13,3433.40,3235.97,3511.36,600.02,598.21,16.93,0000 0000 0000 0000 000000
2015-09-04 12:41:01,0.00,0.11,0.00,23.57,28.20,30.85,14.55,45.69,1022.48,2035.15,3433.39,3235.97,3511.23,600.18,598.49,16.98,0000 0000 0000 0000 000000
2015-09-04 12:46:02,-0.00,0.11,0.00,23.60,28.20,30.90,14.53,45.52,1022.48,2035.06,3433.19,3235.96,3511.06,600.14,598.35,17.03,0000 0000 0000 0000 000000
2015-09-04 12:51:04,0.01,0.11,0.00,23.53,28.20,30.87,14.47,45.56,1022.48,2035.22,3433.04,3235.97,3511.09,599.51,597.81,17.08,0000 0000 0000 0000 000000
2015-09-04 14:09:20,0.00,0.00,0.00,20.99,26.88,24.16,13.37,45.43,1020.48,1906.92,3236.44,3055.54,3333.87,554.47,556.67,0.01,0000 0000 0000 0000 000000